Weather History for Asheville, NC

Change the Weather History Date:

Thursday, May 14, 2009

  Actual Average Record
Temperature  
Mean Temperature 68 °F 63 °F  
Max Temperature 77 °F 74 °F 89 °F (1956)
Min Temperature 59 °F 51 °F 30 °F (1895)
Degree Days  
Heating Degree Days 0 4  
Month to date heating degree days 30 68  
Since 1 July heating degree days 4167 4140  
Cooling Degree Days 3 1  
Month to date cooling degree days 15 13  
Year to date cooling degree days 19 21  
Growing Degree Days 17 (Base 50)    
Moisture  
Dew Point 60 °F    
Average Humidity 77    
Maximum Humidity 93    
Minimum Humidity 60    
Precipitation  
Precipitation 2.93 in 0.12 in 2.93 in (2009)
Month to date precipitation 5.14 1.59  
Year to date precipitation 17.02 16.18  
Snow  
Snow 0.00 in 0.00 in 0.00 in ()
Month to date snowfall 0.0 0.0  
Since 1 July snowfall 6.1 9.9  
Snow Depth 0.00 in    
Sea Level Pressure  
Sea Level Pressure 30.23 in    
Wind  
Wind Speed 6 mph (SE)    
Max Wind Speed 16 mph    
Max Gust Speed 23 mph    
Visibility 7 miles    
Events Rain , Thunderstorm    
T = Trace of Precipitation, MM = Missing Value Source: NWS Daily Summary

Daily Weather History Graph

Daily Weather History Graph

Search for Another Location

Airport:

Trip Planner

Search our weather history database for the weather conditions in past years. The results will help you decide how hot, cold, wet, or windy it might be!

Date:

Astronomy

May. 14, 2009 Rise Set
Actual Time 6:26 AM EDT 8:27 PM EDT
Civil Twilight 5:58 AM EDT 8:55 PM EDT
Nautical Twilight 5:23 AM EDT 9:29 PM EDT
Astronomical Twilight 4:46 AM EDT 10:06 PM EDT
Moon 12:38 AM EDT (5/14) 10:38 AM EDT (5/14)
Length of Visible Light 14h 57m
Length of Day
14h 00m
Waning Gibbous, 74% of the Moon is Illuminated
May 14
Waning Gibbous
May 17
Last Quarter
May 24
New
May 30
First Quarter
Jun 7
Full

Hourly Weather History & Observations

Time (EDT) Temp. Dew Point Humidity Pressure Visibility Wind Dir Wind Speed Gust Speed Precip Events Conditions
12:54 AM 59.0 °F 57.9 °F 96% 30.25 in 7.0 mi SSE 3.5 mph - 0.01 in   Overcast
1:54 AM 59.0 °F 57.9 °F 96% 30.21 in 6.0 mi SE 8.1 mph - N/A   Overcast
2:54 AM 59.0 °F 57.9 °F 96% 30.21 in 8.0 mi SSE 6.9 mph - N/A   Overcast
3:47 AM 59.0 °F 57.2 °F 94% 30.25 in 6.0 mi SSE 4.6 mph - N/A   Overcast
3:54 AM 59.0 °F 57.0 °F 93% 30.20 in 8.0 mi SSE 4.6 mph - N/A   Overcast
4:37 AM 59.0 °F 57.2 °F 94% 30.24 in 7.0 mi SSE 8.1 mph - N/A   Overcast
4:54 AM 59.0 °F 57.9 °F 96% 30.21 in 7.0 mi South 4.6 mph - N/A   Overcast
5:54 AM 59.0 °F 57.0 °F 93% 30.20 in 9.0 mi SSE 5.8 mph - N/A   Overcast
6:54 AM 59.0 °F 57.9 °F 96% 30.22 in 5.0 mi Calm Calm - 0.00 in   Overcast
7:54 AM 59.0 °F 57.9 °F 96% 30.25 in 4.0 mi SSE 3.5 mph - N/A   Overcast
8:51 AM 62.6 °F 59.0 °F 88% 30.30 in 10.0 mi Calm Calm - N/A   Overcast
8:54 AM 62.1 °F 59.0 °F 90% 30.25 in 10.0 mi Calm Calm - N/A   Overcast
9:00 AM 60.8 °F 57.2 °F 88% 30.30 in 10.0 mi ESE 3.5 mph - N/A   Overcast
9:54 AM 62.1 °F 59.0 °F 90% 30.26 in 10.0 mi SE 4.6 mph - N/A   Overcast
10:01 AM 62.6 °F 59.0 °F 88% 30.31 in 10.0 mi SE 6.9 mph - N/A   Overcast
10:54 AM 66.9 °F 61.0 °F 81% 30.25 in 10.0 mi Variable 4.6 mph - N/A   Overcast
11:12 AM 66.2 °F 60.8 °F 83% 30.30 in 10.0 mi SSE 8.1 mph - N/A   Overcast
11:54 AM 70.0 °F 59.0 °F 68% 30.23 in 10.0 mi SSE 10.4 mph - N/A   Mostly Cloudy
12:01 PM 69.8 °F 59.0 °F 68% 30.28 in 10.0 mi South 11.5 mph - N/A   Mostly Cloudy
12:39 PM 71.6 °F 60.8 °F 69% 30.28 in 10.0 mi South 8.1 mph - N/A   Overcast
12:54 PM 70.0 °F 60.1 °F 71% 30.22 in 10.0 mi SE 6.9 mph - N/A   Overcast
1:54 PM 72.0 °F 59.0 °F 64% 30.20 in 10.0 mi SSW 4.6 mph - N/A   Overcast
2:54 PM 73.9 °F 59.0 °F 59% 30.17 in 10.0 mi Variable 5.8 mph - N/A   Mostly Cloudy
3:54 PM 75.0 °F 60.1 °F 60% 30.14 in 10.0 mi South 8.1 mph - N/A   Clear
4:54 PM 73.9 °F 61.0 °F 64% 30.13 in 10.0 mi SSE 9.2 mph - N/A   Mostly Cloudy
5:54 PM 75.0 °F 61.0 °F 62% 30.14 in 10.0 mi South 8.1 mph - N/A   Mostly Cloudy
6:54 PM 73.0 °F 61.0 °F 66% 30.13 in 10.0 mi SSE 8.1 mph - N/A   Overcast
7:54 PM 71.1 °F 60.1 °F 68% 30.15 in 10.0 mi SSE 8.1 mph - N/A   Mostly Cloudy
8:54 PM 70.0 °F 61.0 °F 73% 30.17 in 10.0 mi Calm Calm - N/A   Overcast
9:51 PM 68.0 °F 62.6 °F 83% 30.24 in 10.0 mi NNW 3.5 mph - 0.00 in Rain Light Rain
9:54 PM 68.0 °F 63.0 °F 84% 30.19 in 10.0 mi North 5.8 mph - 0.00 in   Overcast
10:08 PM 66.2 °F 62.6 °F 88% 30.25 in 1.8 mi NE 4.6 mph - 0.03 in Rain Heavy Rain
10:16 PM 64.4 °F 62.6 °F 94% 30.26 in 1.2 mi ENE 3.5 mph - 0.20 in Rain Heavy Rain
10:29 PM 66.2 °F 62.6 °F 88% 30.26 in 1.2 mi ESE 8.1 mph - 0.86 in Rain Heavy Rain
10:34 PM 66.2 °F 62.6 °F 88% 30.26 in 1.5 mi East 6.9 mph - 1.09 in Rain Heavy Rain
10:47 PM 64.4 °F 60.8 °F 88% 30.27 in 1.8 mi Variable 3.5 mph - 1.38 in Rain , Thunderstorm Heavy Thunderstorms and Rain
10:54 PM 61.0 °F 59.0 °F 93% 30.22 in 1.0 mi Variable 6.9 mph - 1.66 in Rain , Thunderstorm Heavy Thunderstorms and Rain
11:12 PM 62.6 °F 59.0 °F 88% 30.28 in 1.2 mi Variable 3.5 mph 23.0 mph 0.73 in Rain , Thunderstorm Heavy Thunderstorms and Rain
11:19 PM 62.6 °F 57.2 °F 82% 30.26 in 1.5 mi SE 6.9 mph - 0.91 in Rain , Thunderstorm Heavy Thunderstorms and Rain
11:25 PM 62.6 °F 57.2 °F 82% 30.27 in 3.0 mi SE 9.2 mph - 0.94 in Rain , Thunderstorm Thunderstorms and Rain
11:28 PM 62.6 °F 57.2 °F 82% 30.26 in 3.0 mi SE 10.4 mph - 0.95 in Rain , Thunderstorm Heavy Thunderstorms and Rain
11:41 PM 62.6 °F 60.8 °F 94% 30.26 in 4.0 mi Variable 3.5 mph - 1.05 in Rain , Thunderstorm Heavy Rain
11:49 PM 62.6 °F 60.8 °F 94% 30.26 in 6.0 mi NNW 6.9 mph - 1.07 in Rain , Thunderstorm Rain
11:54 PM 62.1 °F 59.0 °F 90% 30.20 in 6.0 mi NW 5.8 mph - 1.08 in Rain , Thunderstorm Rain